Skip Page Navigation
NASA JPL Caltech
NASA Logo - Jet Propulsion Laboratory + View the NASA Portal
+ Near-Earth Object (NEO) Program
Search JPL
JPL Home Earth Solar System Stars & Galaxies Technology
JPL Solar System Dynamics
BODIES ORBITS EPHEMERIDES TOOLS PHYSICAL DATA DISCOVERY FAQ SITE MAP
JPL Small-Body Database Browser
Search: [ help ]  
96391 (1998 CZ1)
Classification: Main-belt Asteroid          SPK-ID: 2096391
Ephemeris | Orbit Diagram | Orbital Elements | Physical Parameters | Discovery Circumstances | Close-Approach Data ]

[ show orbit diagram ]
Orbital Elements at Epoch 2457000.5 (2014-Dec-09.0) TDB
Reference: JPL 8 (heliocentric ecliptic J2000)
 Element Value Uncertainty (1-sigma)   Units 
e .1118981210937937 9.8119e-08  
a 2.606363807089567 2.8456e-08 AU
q 2.314716594189377 2.57e-07 AU
i 13.41888819168092 1.0661e-05 deg
node 94.82866862100313 3.8579e-05 deg
peri 139.5998056679912 6.388e-05 deg
M 320.1964380416057 5.6341e-05 deg
tp 2457170.430141326244
(2015-May-27.93014133)
0.00024201 JED
period 1536.919005926963
4.21
2.517e-05
6.891e-08
d
yr
n .2342348546746436 3.836e-09 deg/d
Q 2.898011019989756 3.164e-08 AU
  Orbit Determination Parameters
   # obs. used (total)      518  
   data-arc span      7570 days (20.73 yr)  
   first obs. used      1994-06-06  
   last obs. used      2015-02-26  
   planetary ephem.      DE431  
   SB-pert. ephem.      SB431-BIG16  
   condition code      0  
   fit RMS      .59669  
   data source      ORB  
   producer      Otto Matic  
   solution date      2015-Mar-09 18:17:05  

Additional Information
 Earth MOID = 1.31883 AU 
 T_jup = 3.365 
[ show covariance matrix ]

Ephemeris | Orbit Diagram | Orbital Elements | Physical Parameters | Discovery Circumstances | Close-Approach Data ]

Physical Parameter Table
Parameter Symbol Value Units Sigma Reference Notes
absolute magnitude H 14.2 mag n/a MPO253918  

96391 (1998 CZ1)          Discovered 1998-Feb-06 by BAO Schmidt CCD Asteroid Program at Xinglong
Reference: 20050224/Numbers.arcLast Updated: 2005-02-28

[ show close-approach data ]
Alternate Designations
 1998 CZ1 = 1994 LK7 
Ephemeris | Orbit Diagram | Orbital Elements | Physical Parameters | Discovery Circumstances | Close-Approach Data ]
ABOUT SSD CREDITS/AWARDS PRIVACY/COPYRIGHT GLOSSARY LINKS
FirstGov 2015-Mar-30 09:23 UT
(server date/time)  
NASA Home Page
Site Manager:   Ryan S. Park
Webmaster  Alan B. Chamberlin